Weather History for KAMA - January, 2012

Change the Weather History Date:

Monday, January 16, 2012

  Actual Average Record
Temperature  
Mean Temperature 58 °F 37 °F  
Max Temperature 70 °F 51 °F 73 °F (1911)
Min Temperature 45 °F 23 °F 1 °F (1930)
Degree Days  
Heating Degree Days 7 28  
Month to date heating degree days 394 454  
Since 1 July heating degree days 2060 2171  
Cooling Degree Days 0 0  
Month to date cooling degree days 0 0  
Year to date cooling degree days 0 0  
Growing Degree Days 8 (Base 50)    
Moisture  
Dew Point 31 °F    
Average Humidity 37    
Maximum Humidity 48    
Minimum Humidity 25    
Precipitation  
Precipitation T in 0.02 in 0.34 in (1939)
Month to date precipitation T 0.31  
Year to date precipitation T 0.31  
Snow  
Snow 0.00 in 0.20 in 4.60 in (1960)
Month to date snowfall 0.0 1.9  
Since 1 July snowfall 9.7 8.3  
Snow Depth 0.00 in    
Sea Level Pressure  
Sea Level Pressure 29.76 in    
Wind  
Wind Speed 23 mph (WSW)    
Max Wind Speed 39 mph    
Max Gust Speed 47 mph    
Visibility 10 miles    
Events      
T = Trace of Precipitation, MM = Missing Value Source: NWS Daily Summary

Daily Weather History Graph

Daily Weather History Graph

Search for Another Location

Airport or City:

Trip Planner

Search our weather history database for the weather conditions in past years. The results will help you decide how hot, cold, wet, or windy it might be!

Date:

Astronomy

Jan. 16, 2012 Rise Set
Actual Time 7:54 AM CST 5:58 PM CST
Civil Twilight 7:27 AM CST 6:26 PM CST
Nautical Twilight 6:56 AM CST 6:57 PM CST
Astronomical Twilight 6:25 AM CST 7:27 PM CST
Moon 1:10 AM CST (1/16) 12:10 PM CST (1/16)
Length of Visible Light 10h 58m
Length of Day
10h 03m
Last Quarter, 46% of the Moon is Illuminated
Jan 16
Last Quarter
Jan 23
New
Jan 30
First Quarter
Feb 7
Full
Feb 14
Last Quarter

Hourly Weather History & Observations

Time (CST) Temp. Windchill Dew Point Humidity Pressure Visibility Wind Dir Wind Speed Gust Speed Precip Events Conditions
12:53 AM 54.0 °F - 25.0 °F 33% 29.79 in 10.0 mi SW 26.5 mph 34.5 mph N/A   Clear
1:53 AM 53.1 °F - 26.1 °F 35% 29.79 in 10.0 mi WSW 21.9 mph 32.2 mph N/A   Clear
2:53 AM 48.9 °F - 26.1 °F 41% 29.80 in 10.0 mi WSW 16.1 mph - N/A   Clear
3:53 AM 50.0 °F - 28.0 °F 43% 29.78 in 10.0 mi WSW 25.3 mph 32.2 mph N/A   Clear
4:53 AM 46.0 °F 39.0 °F 27.0 °F 47% 29.79 in 10.0 mi SW 17.3 mph - N/A   Clear
5:53 AM 48.0 °F - 28.0 °F 46% 29.79 in 10.0 mi WSW 16.1 mph - N/A   Clear
6:53 AM 48.0 °F - 28.9 °F 48% 29.79 in 10.0 mi SW 23.0 mph 28.8 mph N/A   Clear
7:53 AM 50.0 °F - 30.9 °F 48% 29.79 in 10.0 mi SW 23.0 mph 33.4 mph N/A   Clear
8:53 AM 52.0 °F - 32.0 °F 47% 29.80 in 10.0 mi WSW 25.3 mph 31.1 mph N/A   Clear
9:53 AM 53.1 °F - 32.0 °F 45% 29.80 in 10.0 mi SW 19.6 mph - N/A   Clear
10:53 AM 62.1 °F - 34.0 °F 35% 29.79 in 10.0 mi WSW 24.2 mph 33.4 mph N/A   Clear
11:53 AM 66.0 °F - 35.1 °F 32% 29.74 in 10.0 mi WSW 27.6 mph 41.4 mph N/A   Clear
12:53 PM 68.0 °F - 34.0 °F 28% 29.69 in 10.0 mi SW 36.8 mph 41.4 mph N/A   Clear
1:53 PM 69.1 °F - 32.0 °F 25% 29.66 in 10.0 mi SW 34.5 mph 46.0 mph N/A   Partly Cloudy
2:53 PM 66.0 °F - 30.9 °F 27% 29.66 in 10.0 mi WSW 29.9 mph 43.7 mph N/A   Mostly Cloudy
3:53 PM 64.0 °F - 37.9 °F 38% 29.67 in 10.0 mi WSW 23.0 mph 32.2 mph 0.00 in   Partly Cloudy
4:53 PM 64.0 °F - 33.1 °F 31% 29.68 in 10.0 mi SW 25.3 mph 33.4 mph N/A   Partly Cloudy
5:53 PM 60.8 °F - 32.0 °F 34% 29.75 in 10.0 mi WSW 20.7 mph 27.6 mph N/A   Partly Cloudy
6:53 PM 55.9 °F - 33.1 °F 42% 29.70 in 10.0 mi SW 11.5 mph - N/A   Partly Cloudy
7:53 PM 57.2 °F - 32.0 °F 38% 29.78 in 10.0 mi WSW 18.4 mph 25.3 mph N/A   Partly Cloudy
8:53 PM 54.0 °F - 33.1 °F 45% 29.74 in 10.0 mi WSW 19.6 mph 26.5 mph N/A   Partly Cloudy
9:53 PM 54.0 °F - 30.0 °F 40% 29.76 in 10.0 mi West 23.0 mph 34.5 mph N/A   Partly Cloudy
10:53 PM 51.1 °F - 30.0 °F 44% 29.79 in 10.0 mi West 16.1 mph - N/A   Clear
11:53 PM 48.9 °F - 28.9 °F 46% 29.81 in 10.0 mi WSW 16.1 mph - N/A   Clear